CFE8114 EGKK-EIDW

Flight info

Callsign CFE8114
Flight time 1h 0m
Altitude 30000
Route NOVMA L620 NIBDA N14 OKSAW DCT BIBPE DCT OKTAD DCT MEDOG DCT KRAGY DCT PEMOB M17 VATRY VATRY3R
Aircraft RJ1H/M-SDFGIRWY/LB1

Departure

Time 2026-04-14 14:20
Airport London Gatwick Airport (EGKK)

Arrival

Time 2026-04-14 15:20
Airport Dublin Airport (EIDW)
Time Latitude Longitude Altitude Speed Heading
2026-04-14 13:54 51.15482 -0.16967 209 ft 0 kts 348°
2026-04-14 14:11 51.15480 -0.16966 204 ft 2 kts 348°
2026-04-14 14:11 51.15454 -0.16961 204 ft 4 kts
2026-04-14 14:11 51.15431 -0.16976 213 ft 4 kts 55°
2026-04-14 14:11 51.15427 -0.16990 212 ft 2 kts 77°
2026-04-14 14:15 51.15428 -0.16982 212 ft 2 kts 78°
2026-04-14 14:16 51.15435 -0.16933 210 ft 7 kts 78°
2026-04-14 14:16 51.15448 -0.16840 213 ft 10 kts 77°
2026-04-14 14:16 51.15437 -0.16732 208 ft 10 kts 150°
2026-04-14 14:17 51.15324 -0.16683 208 ft 7 kts 163°
2026-04-14 14:17 51.15283 -0.16668 212 ft 5 kts 167°
2026-04-14 14:17 51.15253 -0.16658 205 ft 4 kts 167°
2026-04-14 14:17 51.15242 -0.16654 207 ft 0 kts 167°
2026-04-14 14:18 51.15239 -0.16653 208 ft 2 kts 167°
2026-04-14 14:18 51.15210 -0.16642 211 ft 7 kts 166°
2026-04-14 14:18 51.15157 -0.16640 205 ft 8 kts 206°
2026-04-14 14:19 51.15134 -0.16718 205 ft 12 kts 258°
2026-04-14 14:19 51.15087 -0.17066 212 ft 54 kts 258°
2026-04-14 14:19 51.14977 -0.17863 210 ft 91 kts 258°
2026-04-14 14:19 51.14813 -0.19015 215 ft 120 kts 256°
2026-04-14 14:20 51.14612 -0.20452 231 ft 142 kts 258°
2026-04-14 14:20 51.14428 -0.21973 478 ft 142 kts 252°
2026-04-14 14:20 51.14236 -0.23552 679 ft 145 kts 255°
2026-04-14 14:20 51.14073 -0.25112 1036 ft 140 kts 255°
2026-04-14 14:21 51.13931 -0.26654 1252 ft 146 kts 253°
2026-04-14 14:21 51.13759 -0.28286 1510 ft 149 kts 250°
2026-04-14 14:21 51.13527 -0.29927 1763 ft 158 kts 250°
2026-04-14 14:21 51.13278 -0.31686 1996 ft 168 kts 250°
2026-04-14 14:22 51.13012 -0.33511 2343 ft 169 kts 250°
2026-04-14 14:22 51.12714 -0.35371 2550 ft 178 kts 249°
2026-04-14 14:22 51.12383 -0.37323 2654 ft 194 kts 250°
2026-04-14 14:22 51.12001 -0.39549 2776 ft 218 kts 250°
2026-04-14 14:23 51.11600 -0.41880 3436 ft 216 kts 250°
2026-04-14 14:23 51.11081 -0.44105 4043 ft 214 kts 241°
2026-04-14 14:23 51.10422 -0.46233 4590 ft 215 kts 240°
2026-04-14 14:23 51.09717 -0.48415 4823 ft 229 kts 239°
2026-04-14 14:24 51.08960 -0.50739 5012 ft 243 kts 239°
2026-04-14 14:24 51.08173 -0.53169 5342 ft 249 kts 240°
2026-04-14 14:24 51.07387 -0.55624 5819 ft 249 kts 240°
2026-04-14 14:24 51.06597 -0.58091 6247 ft 252 kts 241°
2026-04-14 14:25 51.05812 -0.60582 6735 ft 252 kts 242°
2026-04-14 14:25 51.05107 -0.63148 7164 ft 256 kts 251°
2026-04-14 14:25 51.04695 -0.65929 7629 ft 259 kts 255°
2026-04-14 14:25 51.04323 -0.68752 8073 ft 264 kts 256°
2026-04-14 14:26 51.03959 -0.71615 8620 ft 265 kts 256°
2026-04-14 14:26 51.03600 -0.74525 9106 ft 270 kts 256°
2026-04-14 14:26 51.03235 -0.77472 9652 ft 272 kts 256°
2026-04-14 14:26 51.02864 -0.80454 10108 ft 276 kts 256°
2026-04-14 14:27 51.02471 -0.83441 10778 ft 273 kts 255°
2026-04-14 14:27 51.02073 -0.86415 11350 ft 281 kts 256°
2026-04-14 14:27 51.01663 -0.89532 11611 ft 296 kts 261°
2026-04-14 14:27 51.01868 -0.92855 11832 ft 316 kts 289°
2026-04-14 14:28 51.03179 -0.95749 12003 ft 336 kts 319°
2026-04-14 14:28 51.05275 -0.97413 12692 ft 339 kts 342°
2026-04-14 14:28 51.07630 -0.97820 13297 ft 342 kts 353°
2026-04-14 14:28 51.09859 -0.98750 13714 ft 334 kts 326°
2026-04-14 14:29 51.11693 -1.00965 14093 ft 332 kts 317°
2026-04-14 14:29 51.13527 -1.03226 14436 ft 334 kts 321°
2026-04-14 14:29 51.15440 -1.05364 14756 ft 337 kts 323°
2026-04-14 14:29 51.17399 -1.07430 15108 ft 338 kts 324°
2026-04-14 14:30 51.19397 -1.09443 15423 ft 340 kts 324°
2026-04-14 14:30 51.21416 -1.11427 15741 ft 342 kts 325°
2026-04-14 14:30 51.23460 -1.13400 16055 ft 344 kts 326°
2026-04-14 14:30 51.25521 -1.15364 16347 ft 346 kts 326°
2026-04-14 14:31 51.27582 -1.17325 16675 ft 347 kts 326°
2026-04-14 14:31 51.29666 -1.19328 17014 ft 348 kts 326°
2026-04-14 14:31 51.31738 -1.21331 17315 ft 350 kts 326°
2026-04-14 14:31 51.33852 -1.23300 17583 ft 354 kts 330°
2026-04-14 14:32 51.36124 -1.24898 17843 ft 359 kts 335°
2026-04-14 14:32 51.38431 -1.26297 18152 ft 360 kts 336°
2026-04-14 14:32 51.40795 -1.27681 18444 ft 362 kts 336°
2026-04-14 14:32 51.43165 -1.29039 18715 ft 362 kts 338°
2026-04-14 14:33 51.45538 -1.30416 18991 ft 363 kts 337°
2026-04-14 14:33 51.47907 -1.31826 19274 ft 363 kts 336°
2026-04-14 14:33 51.50284 -1.33243 19559 ft 364 kts 336°
2026-04-14 14:33 51.52659 -1.34662 19826 ft 365 kts 336°
2026-04-14 14:34 51.57419 -1.37563 20385 ft 366 kts 336°
2026-04-14 14:34 51.59720 -1.39287 20632 ft 362 kts 322°
2026-04-14 14:34 51.61443 -1.42174 20880 ft 358 kts 304°
2026-04-14 14:35 51.62780 -1.45490 21144 ft 358 kts 300°
2026-04-14 14:35 51.64019 -1.48959 21432 ft 357 kts 297°
2026-04-14 14:35 51.65181 -1.52502 21669 ft 358 kts 296°
2026-04-14 14:35 51.66317 -1.56078 21921 ft 359 kts 296°
2026-04-14 14:36 51.67458 -1.59656 22151 ft 360 kts 296°
2026-04-14 14:36 51.68605 -1.63244 22387 ft 361 kts 296°
2026-04-14 14:36 51.69722 -1.66862 22604 ft 361 kts 291°
2026-04-14 14:36 51.70427 -1.70741 22837 ft 362 kts 282°
2026-04-14 14:37 51.70883 -1.74749 23063 ft 363 kts 279°
2026-04-14 14:37 51.71225 -1.78790 23279 ft 364 kts 277°
2026-04-14 14:37 51.71504 -1.82846 23520 ft 365 kts 277°
2026-04-14 14:37 51.71827 -1.86914 23733 ft 366 kts 281°
2026-04-14 14:38 51.72342 -1.90927 23905 ft 366 kts 283°
2026-04-14 14:38 51.72930 -1.94871 24088 ft 367 kts 284°
2026-04-14 14:38 51.73549 -1.98871 24278 ft 367 kts 284°
2026-04-14 14:38 51.74164 -2.02867 24508 ft 366 kts 284°
2026-04-14 14:39 51.74775 -2.06852 24752 ft 365 kts 284°
2026-04-14 14:39 51.75382 -2.10828 25006 ft 364 kts 284°
2026-04-14 14:39 51.75982 -2.14795 25238 ft 363 kts 284°
2026-04-14 14:39 51.76562 -2.18754 25484 ft 362 kts 284°
2026-04-14 14:40 51.77146 -2.22705 25729 ft 362 kts 284°
2026-04-14 14:40 51.77730 -2.26652 25973 ft 360 kts 284°
2026-04-14 14:40 51.78307 -2.30582 26214 ft 359 kts 284°
2026-04-14 14:40 51.78881 -2.34505 26483 ft 358 kts 284°
2026-04-14 14:41 51.79450 -2.38410 26731 ft 356 kts 284°
2026-04-14 14:41 51.80014 -2.42300 26957 ft 355 kts 284°
2026-04-14 14:41 51.80573 -2.46196 27147 ft 355 kts 283°
2026-04-14 14:41 51.81115 -2.50082 27374 ft 354 kts 283°
2026-04-14 14:42 51.81657 -2.53961 27580 ft 354 kts 283°
2026-04-14 14:42 51.82200 -2.57832 27806 ft 353 kts 283°
2026-04-14 14:42 51.82724 -2.61697 28010 ft 352 kts 283°
2026-04-14 14:42 51.83235 -2.65513 28216 ft 351 kts 283°
2026-04-14 14:43 51.83747 -2.69377 28445 ft 350 kts 283°
2026-04-14 14:43 51.84267 -2.73213 28637 ft 349 kts 284°
2026-04-14 14:43 51.84798 -2.77044 28848 ft 348 kts 283°
2026-04-14 14:43 51.85315 -2.80872 29043 ft 348 kts 283°
2026-04-14 14:44 51.85834 -2.84685 29258 ft 347 kts 283°
2026-04-14 14:44 51.86345 -2.88497 29449 ft 346 kts 283°
2026-04-14 14:44 51.86860 -2.92297 29640 ft 345 kts 283°
2026-04-14 14:44 51.87371 -2.96088 29812 ft 345 kts 283°
2026-04-14 14:45 51.87875 -2.99874 29979 ft 343 kts 283°
2026-04-14 14:45 51.88871 -3.07426 30030 ft 346 kts 283°
2026-04-14 14:46 51.89881 -3.15133 30040 ft 354 kts 283°
2026-04-14 14:46 51.90902 -3.22948 30046 ft 360 kts 283°
2026-04-14 14:47 51.91942 -3.30913 30029 ft 363 kts 283°
2026-04-14 14:47 51.92980 -3.38908 30003 ft 362 kts 282°
2026-04-14 14:48 51.93831 -3.45550 30001 ft 362 kts 282°
2026-04-14 14:48 51.94855 -3.53556 29992 ft 364 kts 282°
2026-04-14 14:49 51.95876 -3.61602 29990 ft 364 kts 281°
2026-04-14 14:49 51.96891 -3.69665 29993 ft 365 kts 282°
2026-04-14 14:50 51.97908 -3.77740 29990 ft 365 kts 281°
2026-04-14 14:50 51.98922 -3.85824 30005 ft 365 kts 281°
2026-04-14 14:51 51.99921 -3.93875 29979 ft 364 kts 281°
2026-04-14 14:51 52.00897 -4.01906 29978 ft 365 kts 281°
2026-04-14 14:52 52.01860 -4.10012 29981 ft 366 kts 281°
2026-04-14 14:52 52.02845 -4.18140 29967 ft 367 kts 280°
2026-04-14 14:53 52.03198 -4.26397 29979 ft 367 kts 270°
2026-04-14 14:53 52.03046 -4.34692 29964 ft 368 kts 269°
2026-04-14 14:54 52.02818 -4.42992 29952 ft 367 kts 268°
2026-04-14 14:54 52.02601 -4.51235 29949 ft 365 kts 268°
2026-04-14 14:55 52.02410 -4.59474 29950 ft 365 kts 268°
2026-04-14 14:55 52.02227 -4.67711 29949 ft 365 kts 268°
2026-04-14 14:56 52.01934 -4.80032 29951 ft 366 kts 268°
2026-04-14 14:56 52.01718 -4.88295 29963 ft 366 kts 268°
2026-04-14 14:57 52.01506 -4.96543 29944 ft 365 kts 267°
2026-04-14 14:57 52.02338 -5.04517 29966 ft 371 kts 300°
2026-04-14 14:58 52.04151 -5.07569 29982 ft 382 kts 317°
2026-04-14 14:58 52.06387 -5.09956 29977 ft 388 kts 324°
2026-04-14 14:58 52.11214 -5.13981 29954 ft 394 kts 328°
2026-04-14 14:59 52.16176 -5.17785 29944 ft 394 kts 328°
2026-04-14 14:59 52.21091 -5.21688 29937 ft 392 kts 327°
2026-04-14 15:00 52.25957 -5.25676 29931 ft 391 kts 326°
2026-04-14 15:00 52.30812 -5.29689 29942 ft 391 kts 326°
2026-04-14 15:01 52.35666 -5.33719 29933 ft 391 kts 326°
2026-04-14 15:01 52.40512 -5.37757 29948 ft 391 kts 326°
2026-04-14 15:02 52.45381 -5.41780 29920 ft 392 kts 326°
2026-04-14 15:02 52.50214 -5.45793 29910 ft 392 kts 326°
2026-04-14 15:03 52.55114 -5.49741 29907 ft 395 kts 330°
2026-04-14 15:03 52.57689 -5.51375 29513 ft 397 kts 334°
2026-04-14 15:03 52.60329 -5.52811 28624 ft 402 kts 336°
2026-04-14 15:04 52.63018 -5.54166 27714 ft 406 kts 337°
2026-04-14 15:04 52.65736 -5.55476 26836 ft 409 kts 338°
2026-04-14 15:04 52.68468 -5.56817 26101 ft 408 kts 337°
2026-04-14 15:04 52.71166 -5.58184 25476 ft 404 kts 337°
2026-04-14 15:05 52.73848 -5.59536 24851 ft 401 kts 338°
2026-04-14 15:05 52.76512 -5.60877 24240 ft 399 kts 338°
2026-04-14 15:05 52.79153 -5.62223 23635 ft 396 kts 338°
2026-04-14 15:05 52.81777 -5.63583 22977 ft 393 kts 338°
2026-04-14 15:06 52.84340 -5.64926 22347 ft 389 kts 338°
2026-04-14 15:06 52.86940 -5.66294 21721 ft 385 kts 338°
2026-04-14 15:06 52.89450 -5.67615 21146 ft 381 kts 338°
2026-04-14 15:06 52.91974 -5.68937 20529 ft 378 kts 338°
2026-04-14 15:07 52.94473 -5.70250 19942 ft 375 kts 338°
2026-04-14 15:07 52.96959 -5.71539 19342 ft 373 kts 339°
2026-04-14 15:07 52.99427 -5.72792 18741 ft 370 kts 339°
2026-04-14 15:07 53.01868 -5.74071 18154 ft 367 kts 338°
2026-04-14 15:08 53.04296 -5.75344 17515 ft 364 kts 339°
2026-04-14 15:08 53.06698 -5.76580 16906 ft 359 kts 338°
2026-04-14 15:08 53.09064 -5.77836 16321 ft 356 kts 338°
2026-04-14 15:08 53.11398 -5.79134 15752 ft 350 kts 333°
2026-04-14 15:09 53.13352 -5.81345 15131 ft 335 kts 307°
2026-04-14 15:09 53.14611 -5.84534 14548 ft 327 kts 295°
2026-04-14 15:09 53.15641 -5.87883 13970 ft 323 kts 292°
2026-04-14 15:09 53.16564 -5.91250 13397 ft 320 kts 290°
2026-04-14 15:10 53.17432 -5.94676 12720 ft 318 kts 289°
2026-04-14 15:10 53.18272 -5.98067 12064 ft 316 kts 289°
2026-04-14 15:10 53.19101 -6.01404 11484 ft 314 kts 289°
2026-04-14 15:10 53.19945 -6.04751 10808 ft 315 kts 289°
2026-04-14 15:11 53.20803 -6.08119 10264 ft 313 kts 289°
2026-04-14 15:11 53.21640 -6.11393 10128 ft 300 kts 289°
2026-04-14 15:11 53.22453 -6.14523 10063 ft 286 kts 289°
2026-04-14 15:11 53.23227 -6.17523 9877 ft 279 kts 289°
2026-04-14 15:12 53.23998 -6.20493 9586 ft 277 kts 289°
2026-04-14 15:12 53.24760 -6.23447 9362 ft 277 kts 289°
2026-04-14 15:12 53.25512 -6.26398 9300 ft 274 kts 289°
2026-04-14 15:12 53.26251 -6.29378 9133 ft 278 kts 288°
2026-04-14 15:13 53.27005 -6.32356 9011 ft 279 kts 288°
2026-04-14 15:13 53.27760 -6.35321 8818 ft 276 kts 289°
2026-04-14 15:13 53.28510 -6.38225 8532 ft 274 kts 288°
2026-04-14 15:13 53.29190 -6.41182 8145 ft 273 kts 290°
2026-04-14 15:14 53.30043 -6.44039 7692 ft 275 kts 294°
2026-04-14 15:14 53.30940 -6.46852 7277 ft 274 kts 294°
2026-04-14 15:14 53.31846 -6.49650 6876 ft 273 kts 294°
2026-04-14 15:14 53.32757 -6.52435 6481 ft 272 kts 294°
2026-04-14 15:15 53.33661 -6.55195 5939 ft 270 kts 294°
2026-04-14 15:15 53.34670 -6.57835 5247 ft 273 kts 309°
2026-04-14 15:15 53.36328 -6.59457 4565 ft 284 kts 343°
2026-04-14 15:15 53.38311 -6.59565 3872 ft 289 kts
2026-04-14 15:16 53.40151 -6.58309 3394 ft 283 kts 32°
2026-04-14 15:16 53.41818 -6.56618 3154 ft 277 kts 32°
2026-04-14 15:16 53.43440 -6.54950 3033 ft 269 kts 33°
2026-04-14 15:16 53.44842 -6.53040 2962 ft 251 kts 59°
2026-04-14 15:17 53.45384 -6.50455 2903 ft 227 kts 95°
2026-04-14 15:17 53.45163 -6.47922 2622 ft 215 kts 108°
2026-04-14 15:17 53.44916 -6.45525 2347 ft 202 kts 108°
2026-04-14 15:17 53.44691 -6.43315 2044 ft 182 kts 108°
2026-04-14 15:18 53.44487 -6.41335 1821 ft 164 kts 108°
2026-04-14 15:18 53.44331 -6.39514 1648 ft 154 kts 105°
2026-04-14 15:18 53.44218 -6.37781 1388 ft 149 kts 104°
2026-04-14 15:18 53.44126 -6.36055 1148 ft 143 kts 103°
2026-04-14 15:19 53.44056 -6.34437 970 ft 139 kts 99°
2026-04-14 15:19 53.44002 -6.32837 817 ft 136 kts 104°
2026-04-14 15:19 53.43905 -6.31288 650 ft 132 kts 105°
2026-04-14 15:19 53.43810 -6.29791 478 ft 128 kts 100°
2026-04-14 15:20 53.43730 -6.28295 293 ft 130 kts 96°
2026-04-14 15:20 53.43649 -6.26820 218 ft 120 kts 99°
2026-04-14 15:20 53.43581 -6.25597 211 ft 78 kts 95°
2026-04-14 15:20 53.43547 -6.24992 212 ft 42 kts 95°
2026-04-14 15:21 53.43526 -6.24619 216 ft 16 kts 102°
2026-04-14 15:21 53.43449 -6.24554 212 ft 13 kts 185°
2026-04-14 15:21 53.43373 -6.24580 212 ft 9 kts 221°
2026-04-14 15:21 53.43360 -6.24695 218 ft 12 kts 275°
2026-04-14 15:22 53.43368 -6.24856 213 ft 15 kts 275°
2026-04-14 15:22 53.43379 -6.25050 211 ft 17 kts 275°
2026-04-14 15:22 53.43390 -6.25257 218 ft 19 kts 275°
2026-04-14 15:22 53.43402 -6.25485 216 ft 19 kts 276°
2026-04-14 15:23 53.43390 -6.25627 218 ft 11 kts 212°
2026-04-14 15:23 53.43304 -6.25611 210 ft 15 kts 157°
2026-04-14 15:23 53.43203 -6.25539 213 ft 16 kts 156°
2026-04-14 15:23 53.43102 -6.25464 217 ft 16 kts 156°
2026-04-14 15:24 53.43001 -6.25389 211 ft 16 kts 156°
2026-04-14 15:24 53.42900 -6.25314 212 ft 15 kts 155°
2026-04-14 15:24 53.42810 -6.25253 211 ft 13 kts 156°
2026-04-14 15:24 53.42729 -6.25189 211 ft 11 kts 138°
2026-04-14 15:25 53.42683 -6.25075 212 ft 12 kts 138°
2026-04-14 15:25 53.42600 -6.25028 215 ft 13 kts 160°
2026-04-14 15:25 53.42556 -6.24931 211 ft 12 kts 80°
2026-04-14 15:25 53.42546 -6.24814 214 ft 8 kts 95°
2026-04-14 15:26 53.42555 -6.24742 214 ft 5 kts 70°
2026-04-14 15:26 53.42565 -6.24696 211 ft 3 kts 71°
2026-04-14 15:26 53.42567 -6.24686 219 ft 0 kts 71°